{"data":{"norad_id":44718,"epoch":"2026-05-25T04:57:58.688928Z","epoch_age_seconds":53072,"freshness":"FRESH","line1":"1 44718U 19074F   26145.20692927  .00041629  00000+0  80783-3 0  9990","line2":"2 44718  53.1575 178.8103 0002703  33.2218 326.8960 15.47270300360643","mean_motion":15.472703,"eccentricity":0.0002703,"inclination_deg":53.1575,"raan_deg":178.8103,"arg_perigee_deg":33.2218,"mean_anomaly_deg":326.896,"bstar":0.00080783,"rev_number":36064,"period_min":93.067126021872,"perigee_km":422.87659197374,"apogee_km":426.55421398279,"semimajor_km":6802.8524029783,"source":"CELESTRAK","updated_at":"2026-05-25T13:38:16.371968Z"}}